Regional Weather Roundup
Issued by NWS

Home | Current Version | Previous Version | Text Only | Print | Product List | Glossary On
Versions: 1 2 3 4 5 6 7 8 9 10 11 12 13 14 15 16 17 18 19 20 21 22 23 24 25 26 27
000
ASUS44 KJAN 260010
RWRMS

MISSISSIPPI HOURLY WEATHER ROUNDUP
NATIONAL WEATHER SERVICE JACKSON MS
700 PM CDT THU MAY 25 2017

NOTE: "FAIR: INDICATES FEW OR NO CLOUDS BELOW 12,000 FEET WITH NO
SIGNIFICANT WEATHER AND/OR OBSTRUCTIONS TO VISIBILITY.

MSZ001>002-007>008-010>013-018>021-025>028-034>036-260100-
NORTHWEST MISSISSIPPI

CITY           SKY/WX    TMP DP  RH WIND       PRES   REMARKS
BATESVILLE     FAIR      74  54  48 SW9       29.82R
CLARKSDALE       N/A     75  57  53 MISG      29.80R
CLEVELAND      FAIR      76  60  57 S7        29.80R
GREENWOOD      SUNNY     76  58  53 S10       29.81S
6HR MIN TEMP:  73; 6HR MAX TEMP:  78;

GREENVILLE     SUNNY     77  56  48 S14       29.79S
6HR MIN TEMP:  74; 6HR MAX TEMP:  79;

OLIVE BRANCH   SUNNY    N/A N/A N/A SW6       29.79R
OXFORD         FAIR      72  52  49 SW6       29.84R
TUNICA         CLEAR     73  55  53 S10       29.80S
WINONA         FAIR      75  55  50 CALM      29.83R
$$

MSZ003>006-009-014>017-022>024-029>033-037>039-260100-
NORTHEAST MISSISSIPPI

CITY           SKY/WX    TMP DP  RH WIND       PRES   REMARKS
COLUMBUS AFB   CLEAR     75  58  55 W5        29.83R
6HR MIN TEMP:  72; 6HR MAX TEMP:  77;

CORINTH        FAIR      73  52  46 VRB6      29.81R
GOLDN TRIANGLE CLEAR     75  52  43 SW7       29.80S
STARKVILLE     FAIR      73  54  49 SW3       29.84S
TUPELO         SUNNY     74  52  46 S5        29.82R
6HR MIN TEMP:  70; 6HR MAX TEMP:  77;

$$

MSZ040-058-260100-
CENTRAL MISSISSIPPI

CITY           SKY/WX    TMP DP  RH WIND       PRES   REMARKS
JACKSON INTL   SUNNY     78  56  46 SW6       29.84R
6HR MIN TEMP:  73; 6HR MAX TEMP:  80;

JACKSON HAWKNS SUNNY     79  55  43 S5        29.83S
6HR MIN TEMP:  74; 6HR MAX TEMP:  81;

MADISON        FAIR      77  55  47 SW5       29.83S
MERIDIAN KEY   CLEAR     78  55  44 W3        29.85R
6HR MIN TEMP:  75; 6HR MAX TEMP:  81;

MERIDIAN NAS   CLEAR     77  51  40 CALM      29.85S
6HR MIN TEMP:  75; 6HR MAX TEMP:  80;

VICKSBURG VKS  CLEAR     81  59  47 S5        29.79S
$$

MSZ059>079-260100-
SOUTH MISSISSIPPI

CITY           SKY/WX    TMP DP  RH WIND       PRES   REMARKS
BROOKHAVEN     FAIR      82  55  39 S6        29.86
COLUMBIA       FAIR      79  57  47 SW3       29.88R
HATTIESBURG    CLEAR     79  54  41 W6        29.86R
6HR MIN TEMP:  75; 6HR MAX TEMP:  82;

MCCOMB         SUNNY     79  54  41 SW6       29.85R
6HR MIN TEMP:  77; 6HR MAX TEMP:  82;

NATCHEZ        SUNNY     81  65  58 S9        29.82S
6HR MIN TEMP:  77; 6HR MAX TEMP:  82;

PINE BELT      NOT AVBL
$$

MSZ080>082-260100-
COASTAL MISSISSIPPI

CITY           SKY/WX    TMP DP  RH WIND       PRES   REMARKS
BILOXI         CLEAR     78  60  55 SW10      29.86R
6HR MIN TEMP:  78; 6HR MAX TEMP:  82;

PASCAGOULA     CLEAR     76  57  51 VRB5      29.86R
6HR MIN TEMP:  76; 6HR MAX TEMP:  84;

GULFPORT       CLEAR     79  58  48 SW6       29.85R
6HR MIN TEMP:  79; 6HR MAX TEMP:  84;

$$

LAZ007>009-015>016-023>026-260100-
NORTHEAST LOUISIANA

CITY           SKY/WX    TMP DP  RH WIND       PRES   REMARKS
BASTROP        FAIR      81  62  52 SE3       29.78S
TALLULAH/VBURG SUNNY     76  60  57 S6        29.81S
6HR MIN TEMP:  74; 6HR MAX TEMP:  79;

VIDALIA        FAIR      80  66  62 S9        29.80S
$$




USA.gov is the U.S. government's official web portal to all federal, state and local government web resources and services.